FW5295 Weather Reports


Display with metric or nautical units.
time (UTC)temp
F
wind
direction
speed
MPH
gust
MPH
rain 1hr
in
rain 24hr
in
rain mn
in
humidity
%
barometer
mb
20260504001719 66 228 2.0 6.0 0.00 0.02 0.02 48 1004.6
20260504001216 66 237 3.0 6.0 0.00 0.02 0.02 49 1004.9
20260504000716 66 237 3.0 5.0 0.00 0.02 0.02 49 1004.6
20260504000215 66 205 1.0 5.0 0.00 0.02 0.02 49 1004.9
20260503235715 67 247 1.0 7.0 0.00 0.02 0.02 49 1004.9
20260503235440 67 196 2.0 7.0 0.00 0.02 0.02 48 1004.9
20260503234715 67 241 3.0 6.0 0.00 0.02 0.02 47 1004.6
20260503234213 67 267 2.0 11.0 0.00 0.02 0.02 45 1004.6
20260503233718 67 251 2.0 11.0 0.00 0.02 0.02 46 1004.6
20260503233211 68 306 4.0 11.0 0.00 0.02 0.02 44 1004.9
20260503232713 68 238 4.0 11.0 0.00 0.02 0.02 45 1004.6
20260503232211 68 237 4.0 11.0 0.00 0.02 0.02 44 1004.6
20260503231712 68 275 4.0 10.0 0.00 0.02 0.02 45 1004.6
20260503231210 68 275 3.0 11.0 0.00 0.02 0.02 44 1004.9
20260503230712 68 252 3.0 11.0 0.00 0.02 0.02 44 1004.6
20260503230427 68 243 4.0 10.0 0.00 0.02 0.02 45 1004.6
20260503225934 68 231 4.0 11.0 0.00 0.02 0.02 46 1004.9
20260503225208 67 232 2.0 11.0 0.00 0.02 0.02 45 1004.9
20260503224710 68 233 9.0 10.0 0.00 0.02 0.02 47 1004.6
20260503224207 68 200 2.0 13.0 0.00 0.02 0.02 46 1004.9
20260503223925 68 229 2.0 13.0 0.00 0.02 0.02 45 1004.9
20260503223205 68 229 4.0 13.0 0.00 0.02 0.02 45 1005.2
20260503222706 68 239 7.0 12.0 0.00 0.02 0.02 45 1005.2
20260503222205 68 243 5.0 12.0 0.00 0.02 0.02 44 1004.9
20260503221706 68 235 6.0 12.0 0.00 0.02 0.02 44 1004.9
20260503221204 68 237 4.0 11.0 0.00 0.02 0.02 45 1005.2
20260503220709 68 229 2.0 14.0 0.00 0.02 0.02 45 1005.2
20260503220204 68 232 6.0 16.0 0.00 0.02 0.02 44 1004.9
20260503215704 68 233 5.0 16.0 0.00 0.02 0.02 46 1005.2
20260503215523 67 235 5.0 15.0 0.00 0.02 0.02 44 1005.2
20260503215422 67 225 4.0 10.0 0.00 0.02 0.02 45 1004.9
20260503214202 66 205 3.0 14.0 0.00 0.02 0.02 48 1005.2
20260503213702 65 222 9.0 14.0 0.00 0.02 0.02 47 1005.2
20260503213427 65 213 5.0 12.0 0.00 0.02 0.02 47 1005.2
20260503212702 66 184 5.0 12.0 0.00 0.02 0.02 46 1005.2
20260503212159 66 215 6.0 11.0 0.00 0.02 0.02 47 1005.2
20260503211700 66 271 4.0 13.0 0.00 0.02 0.02 47 1005.6
20260503211158 66 231 6.0 13.0 0.00 0.02 0.02 46 1006.0
20260503210700 65 211 5.0 10.0 0.00 0.02 0.02 48 1006.0
20260503210200 65 197 5.0 14.0 0.00 0.02 0.02 49 1006.0
20260503205657 65 213 6.0 14.0 0.00 0.02 0.02 45 1006.0
20260503205157 66 231 5.0 13.0 0.00 0.02 0.02 47 1006.0
20260503204657 66 206 9.0 13.0 0.00 0.02 0.02 47 1006.3
20260503204426 65 198 6.0 14.0 0.00 0.02 0.02 45 1006.3
20260503203659 65 231 4.0 19.0 0.00 0.02 0.02 46 1006.3
20260503203153 65 196 5.0 19.0 0.00 0.02 0.02 47 1006.7
20260503202653 65 254 3.0 14.0 0.00 0.02 0.02 45 1006.7
20260503202412 65 222 8.0 12.0 0.00 0.02 0.02 47 1007.0
20260503202306 65 213 9.0 14.0 0.00 0.02 0.02 45 1006.7
20260503201152 65 221 7.0 17.0 0.00 0.02 0.02 46 1007.4
20260503200652 64 222 7.0 20.0 0.00 0.02 0.02 44 1007.4
20260503200152 64 232 9.0 20.0 0.00 0.02 0.02 47 1007.4
20260503195651 63 222 6.0 14.0 0.00 0.02 0.02 48 1007.4
20260503195149 63 214 5.0 14.0 0.00 0.02 0.02 47 1007.4
20260503194651 63 208 10.0 14.0 0.00 0.02 0.02 47 1007.4
20260503194149 63 226 6.0 12.0 0.00 0.02 0.02 47 1007.7
20260503193650 63 202 7.0 15.0 0.00 0.02 0.02 48 1007.7
20260503193147 63 228 9.0 15.0 0.00 0.02 0.02 51 1007.7
20260503192914 63 232 6.0 15.0 0.00 0.02 0.02 52 1007.7
20260503192411 62 192 3.0 15.0 0.00 0.02 0.02 55 1007.7
20260503191647 62 218 6.0 15.0 0.00 0.02 0.02 57 1008.0
20260503191147 62 214 9.0 13.0 0.00 0.02 0.02 57 1007.7
20260503190914 61 229 7.0 18.0 0.00 0.02 0.02 57 1008.0
20260503190146 60 188 10.0 18.0 0.00 0.02 0.02 57 1008.0
20260503185646 60 196 8.0 15.0 0.00 0.02 0.02 61 1007.7
20260503185143 59 156 13.0 15.0 0.00 0.02 0.02 61 1008.0
20260503184909 59 218 6.0 18.0 0.00 0.02 0.02 60 1008.0
20260503184143 58 207 9.0 18.0 0.00 0.02 0.02 61 1008.0
20260503183911 58 179 7.0 19.0 0.00 0.02 0.02 61 1008.0
20260503183403 58 190 7.0 20.0 0.00 0.02 0.02 62 1008.0
20260503182642 58 198 5.0 20.0 0.00 0.02 0.02 62 1008.0
20260503182621 58 199 8.0 20.0 0.00 0.02 0.02 60 1008.7
20260503181641 58 188 5.0 19.0 0.00 0.02 0.02 62 1008.4
20260503181140 57 195 8.0 19.0 0.00 0.02 0.02 62 1008.7
20260503181122 56 175 9.0 18.0 0.00 0.02 0.02 63 1008.7
20260503180139 56 182 7.0 17.0 0.00 0.02 0.02 62 1009.1
20260503175638 56 207 4.0 17.0 0.00 0.02 0.02 60 1009.1
20260503175136 57 192 4.0 14.0 0.01 0.02 0.02 61 1009.4
20260503174901 56 164 5.0 16.0 0.01 0.02 0.02 64 1009.4
20260503174401 55 205 4.0 16.0 0.01 0.02 0.02 67 1009.4
20260503173637 54 186 5.0 15.0 0.01 0.02 0.02 69 1009.4
20260503173135 54 169 14.0 16.0 0.01 0.02 0.02 70 1009.4
20260503172635 53 175 9.0 16.0 0.01 0.02 0.02 72 1009.4
20260503172135 53 161 11.0 15.0 0.01 0.02 0.02 71 1009.8
20260503171635 53 181 6.0 13.0 0.01 0.02 0.02 73 1010.2
20260503171133 53 191 6.0 13.0 0.01 0.02 0.02 76 1010.2
20260503170633 53 223 4.0 13.0 0.01 0.02 0.02 74 1010.5
20260503170134 52 190 4.0 14.0 0.01 0.02 0.02 81 1010.9
20260503150621 51 226 3.0 14.0 0.00 0.00 0.00 72 1012.5
20260503150120 51 205 6.0 14.0 0.00 0.00 0.00 70 1012.9
20260503140116 49 226 3.0 7.0 0.00 0.00 0.00 70 1012.5
20260503131109 47 194 2.0 9.0 0.00 0.00 0.00 70 1013.3
20260503130608 47 225 2.0 9.0 0.00 0.00 0.00 70 1013.3
20260503130115 47 238 4.0 9.0 0.00 0.00 0.00 70 1013.3
20260503120106 45 212 5.0 6.0 0.00 0.00 0.00 71 1013.3
20260503110559 44 204 3.0 9.0 0.00 0.00 0.00 70 1012.5
20260503110108 44 169 2.0 10.0 0.00 0.00 0.00 70 1012.5
20260503081539 43 201 2.0 6.0 0.00 0.00 0.00 67 1013.7
20260503081038 43 216 2.0 6.0 0.00 0.00 0.00 67 1013.7
20260503080537 43 240 3.0 6.0 0.00 0.00 0.00 66 1013.7
20260503072532 44 216 3.0 5.0 0.00 0.00 0.00 63 1013.7
20260503072035 44 218 2.0 5.0 0.00 0.00 0.00 63 1013.7
20260503071753 44 210 4.0 5.0 0.00 0.00 0.00 63 1013.7
20260503071033 44 206 3.0 4.0 0.00 0.00 0.00 63 1014.0
20260503070532 44 186 3.0 4.0 0.00 0.00 0.00 62 1014.0
20260503055024 44 212 2.0 5.0 0.00 0.00 0.00 62 1014.3
20260503054523 44 269 3.0 5.0 0.00 0.00 0.00 62 1014.3
20260503054021 44 243 2.0 5.0 0.00 0.00 0.00 62 1014.7
20260503053523 44 225 0.0 4.0 0.00 0.00 0.00 62 1014.3
20260503053021 44 228 2.0 4.0 0.00 0.00 0.00 61 1014.3
20260503052523 44 265 2.0 4.0 0.00 0.00 0.00 62 1014.7
20260503052019 44 230 3.0 4.0 0.00 0.00 0.00 62 1014.7
20260503051523 44 223 1.0 4.0 0.00 0.00 0.00 61 1015.0
20260503051018 45 179 1.0 4.0 0.00 0.00 0.00 60 1014.7
20260503050533 45 257 2.0 4.0 0.00 0.00 0.00 61 1014.7
20260503050235 45 219 3.0 3.0 0.00 0.00 0.00 61 1014.7
20260503045517 45 215 0.0 4.0 0.00 0.00 0.00 61 1015.0
20260503045017 45 217 0.0 4.0 0.00 0.00 0.00 61 1014.7
20260503044516 45 255 3.0 3.0 0.00 0.00 0.00 61 1015.0
20260503044017 45 309 2.0 3.0 0.00 0.00 0.00 61 1014.7
20260503043515 45 194 1.0 3.0 0.00 0.00 0.00 61 1015.0
20260503043014 45 225 2.0 4.0 0.00 0.00 0.00 61 1015.0
20260503042515 45 206 1.0 4.0 0.00 0.00 0.00 61 1015.0
20260503042013 45 220 4.0 4.0 0.00 0.00 0.00 61 1014.7
20260503041513 45 217 1.0 4.0 0.00 0.00 0.00 61 1015.0
20260503041012 45 202 2.0 3.0 0.00 0.00 0.00 60 1015.0
20260503040513 45 227 2.0 3.0 0.00 0.00 0.00 62 1015.4
20260503040012 45 149 2.0 3.0 0.00 0.00 0.00 61 1015.0
20260503035511 45 197 2.0 3.0 0.00 0.00 0.00 61 1015.0
20260503035012 45 198 2.0 4.0 0.00 0.00 0.00 62 1015.0
20260503034511 45 205 1.0 4.0 0.00 0.00 0.00 60 1015.0
20260503034009 45 219 0.0 2.0 0.00 0.00 0.00 60 1015.4
20260503033509 46 172 0.0 3.0 0.00 0.00 0.00 60 1015.0
20260503033024 46 240 2.0 3.0 0.00 0.00 0.00 60 1015.4
20260503032509 46 218 1.0 2.0 0.00 0.00 0.00 60 1015.4
20260503032007 46 233 0.0 3.0 0.00 0.00 0.00 60 1015.4
20260503031507 46 189 0.0 3.0 0.00 0.00 0.00 59 1015.4
20260503031006 46 208 0.0 2.0 0.00 0.00 0.00 59 1015.4
20260503030730 46 221 1.0 2.0 0.00 0.00 0.00 60 1015.4
20260503030017 46 189 0.0 2.0 0.00 0.00 0.00 61 1015.4
20260503025725 46 163 1.0 3.0 0.00 0.00 0.00 59 1015.4
20260503025004 46 135 0.0 3.0 0.00 0.00 0.00 59 1015.7
20260503024506 46 249 2.0 3.0 0.00 0.00 0.00 59 1015.4
20260503024003 46 195 1.0 3.0 0.00 0.00 0.00 59 1015.4
20260503023503 46 218 0.0 2.0 0.00 0.00 0.00 59 1015.4
20260503023001 46 171 0.0 2.0 0.00 0.00 0.00 58 1015.4
20260503022502 47 202 0.0 2.0 0.00 0.00 0.00 58 1015.0
20260503022439 47 224 0.0 2.0 0.00 0.00 0.00 57 1015.4
20260503021501 47 220 1.0 2.0 0.00 0.00 0.00 58 1015.4
20260503021001 47 196 0.0 2.0 0.00 0.00 0.00 56 1015.4
20260503020501 47 202 1.0 1.0 0.00 0.00 0.00 56 1015.4
20260503020000 47 218 0.0 1.0 0.00 0.00 0.00 56 1015.4
20260503015459 48 212 0.0 1.0 0.00 0.00 0.00 55 1015.0
20260503014958 48 120 0.0 2.0 0.00 0.00 0.00 53 1015.0
20260503014459 48 212 0.0 2.0 0.00 0.00 0.00 53 1015.4
20260503013957 48 224 0.0 2.0 0.00 0.00 0.00 52 1015.0
20260503013459 49 214 0.0 2.0 0.00 0.00 0.00 52 1015.0
20260503012955 49 244 1.0 2.0 0.00 0.00 0.00 53 1015.4
20260503012456 49 172 1.0 3.0 0.00 0.00 0.00 52 1015.4
20260503011959 49 162 1.0 4.0 0.00 0.00 0.00 51 1015.0
20260503011720 50 205 0.0 4.0 0.00 0.00 0.00 50 1015.0
20260503010953 50 192 1.0 3.0 0.00 0.00 0.00 49 1015.4
20260503010713 50 196 0.0 3.0 0.00 0.00 0.00 49 1015.4
20260503005955 50 239 2.0 3.0 0.00 0.00 0.00 50 1015.0
20260503005453 51 250 1.0 2.0 0.00 0.00 0.00 51 1015.0
20260503004952 51 224 0.0 3.0 0.00 0.00 0.00 49 1015.0
20260503004453 51 243 2.0 3.0 0.00 0.00 0.00 47 1015.4
20260503003952 52 232 0.0 3.0 0.00 0.00 0.00 46 1015.4
20260503003451 52 221 2.0 3.0 0.00 0.00 0.00 44 1015.0
20260503002948 53 223 2.0 3.0 0.00 0.00 0.00 44 1015.4
20260503002450 53 250 2.0 4.0 0.00 0.00 0.00 44 1015.0